Time,TemperatureF,DewpointF,PressureIn,WindDirection,WindDirectionDegrees,WindSpeedMPH,WindSpeedGustMPH,Humidity,HourlyPrecipIn,Conditions,Clouds,dailyrainin,SoftwareType,DateUTC
2013-03-27 00:00:00,54.6,36.8,29.95,WSW,248,4.0,8.0,51,0.00,,---,0.00,VWS V14.01,2013-03-27 07:00:00,
2013-03-27 00:30:00,54.2,37.0,29.95,WSW,248,4.0,8.0,52,0.00,,---,0.00,VWS V14.01,2013-03-27 07:30:00,
2013-03-27 01:00:00,54.4,37.2,29.95,WSW,248,4.0,11.0,52,0.00,,---,0.00,VWS V14.01,2013-03-27 08:00:00,
2013-03-27 01:30:00,54.1,38.8,29.94,West,270,4.0,9.0,56,0.00,,---,0.00,VWS V14.01,2013-03-27 08:30:00,
2013-03-27 02:00:00,53.7,40.2,29.93,West,270,4.0,9.0,60,0.00,,---,0.00,VWS V14.01,2013-03-27 09:00:00,
2013-03-27 02:30:00,53.8,39.8,29.92,West,270,5.0,12.0,59,0.00,,---,0.00,VWS V14.01,2013-03-27 09:30:00,
2013-03-27 03:00:00,53.9,39.0,29.91,West,270,6.0,12.0,57,0.00,,---,0.00,VWS V14.01,2013-03-27 10:00:00,
2013-03-27 03:30:00,52.5,39.0,29.91,West,270,6.0,13.0,60,0.00,,---,0.00,VWS V14.01,2013-03-27 10:30:00,
2013-03-27 04:00:00,52.8,39.3,29.91,West,270,5.0,12.0,60,0.00,,---,0.00,VWS V14.01,2013-03-27 11:00:00,
2013-03-27 04:30:00,52.4,38.5,29.91,WSW,248,4.0,12.0,59,0.00,,---,0.00,VWS V14.01,2013-03-27 11:30:00,
2013-03-27 04:58:00,52.2,38.8,29.92,WSW,242,5.0,5.0,60,0.00,,---,0.00,VWS V14.01,2013-03-27 11:58:00,
2013-03-27 05:00:00,52.2,38.8,29.92,WSW,242,5.0,5.0,60,0.00,,---,0.00,VWS V14.01,2013-03-27 12:00:00,
2013-03-27 05:03:00,51.8,38.4,29.92,WSW,252,4.0,7.0,60,0.00,,---,0.00,VWS V14.01,2013-03-27 12:03:00,
2013-03-27 05:08:00,51.7,38.7,29.92,WSW,255,5.0,9.0,61,0.00,,---,0.00,VWS V14.01,2013-03-27 12:08:00,
2013-03-27 05:13:00,51.6,38.6,29.92,WSW,246,4.0,9.0,61,0.00,,---,0.00,VWS V14.01,2013-03-27 12:13:00,
2013-03-27 05:18:00,51.5,38.9,29.92,West,259,5.0,12.0,62,0.00,,---,0.00,VWS V14.01,2013-03-27 12:18:00,
2013-03-27 05:23:00,51.5,38.5,29.92,West,267,5.0,12.0,61,0.00,,---,0.00,VWS V14.01,2013-03-27 12:23:00,
2013-03-27 05:28:00,51.3,38.7,29.92,WSW,243,4.0,4.0,62,0.00,,---,0.00,VWS V14.01,2013-03-27 12:28:00,
2013-03-27 05:30:00,51.3,38.7,29.92,WSW,237,3.0,12.0,62,0.00,,---,0.00,VWS V14.01,2013-03-27 12:30:00,
2013-03-27 05:33:00,51.4,39.2,29.92,WNW,293,5.0,11.0,63,0.00,,---,0.00,VWS V14.01,2013-03-27 12:33:00,
2013-03-27 05:38:00,51.4,38.8,29.92,WSW,249,3.0,11.0,62,0.00,,---,0.00,VWS V14.01,2013-03-27 12:38:00,
2013-03-27 05:43:00,51.5,38.9,29.92,WSW,247,5.0,12.0,62,0.00,,---,0.00,VWS V14.01,2013-03-27 12:43:00,
2013-03-27 05:48:00,51.3,38.7,29.93,West,276,11.0,12.0,62,0.00,,---,0.00,VWS V14.01,2013-03-27 12:48:00,
2013-03-27 05:53:00,51.2,39.0,29.93,SW,214,3.0,12.0,63,0.00,,---,0.00,VWS V14.01,2013-03-27 12:53:00,
2013-03-27 05:58:00,51.2,39.0,29.93,WSW,240,3.0,8.0,63,0.00,,---,0.00,VWS V14.01,2013-03-27 12:58:00,
2013-03-27 06:00:00,51.3,39.2,29.93,West,264,6.0,12.0,63,0.00,,---,0.00,VWS V14.01,2013-03-27 13:00:00,
2013-03-27 06:03:00,51.3,39.2,29.93,WSW,255,8.0,11.0,63,0.00,,---,0.00,VWS V14.01,2013-03-27 13:03:00,
2013-03-27 06:08:00,51.3,39.2,29.93,WSW,247,6.0,12.0,63,0.00,,---,0.00,VWS V14.01,2013-03-27 13:08:00,
2013-03-27 06:13:00,51.1,39.4,29.93,WSW,246,5.0,12.0,64,0.00,,---,0.00,VWS V14.01,2013-03-27 13:13:00,
2013-03-27 06:18:00,51.0,39.3,29.93,West,274,5.0,12.0,64,0.00,,---,0.00,VWS V14.01,2013-03-27 13:18:00,
2013-03-27 06:23:00,50.9,39.2,29.93,WNW,291,5.0,12.0,64,0.00,,---,0.00,VWS V14.01,2013-03-27 13:23:00,
2013-03-27 06:28:00,50.7,39.4,29.93,SW,219,6.0,8.0,65,0.00,,---,0.00,VWS V14.01,2013-03-27 13:28:00,
2013-03-27 06:30:00,50.7,39.4,29.93,WSW,246,8.0,12.0,65,0.00,,---,0.00,VWS V14.01,2013-03-27 13:30:00,
2013-03-27 06:33:00,50.5,39.2,29.93,WSW,257,4.0,11.0,65,0.00,,---,0.00,VWS V14.01,2013-03-27 13:33:00,
2013-03-27 06:38:00,50.3,39.4,29.94,WSW,242,4.0,11.0,66,0.00,,---,0.00,VWS V14.01,2013-03-27 13:38:00,
2013-03-27 06:43:00,50.2,39.3,29.94,WNW,283,4.0,11.0,66,0.00,,---,0.00,VWS V14.01,2013-03-27 13:43:00,
2013-03-27 06:48:00,50.1,39.6,29.94,WNW,284,5.0,11.0,67,0.00,,---,0.00,VWS V14.01,2013-03-27 13:48:00,
2013-03-27 06:53:00,50.1,39.6,29.94,West,278,5.0,11.0,67,0.00,,---,0.00,VWS V14.01,2013-03-27 13:53:00,
2013-03-27 06:58:00,50.3,39.8,29.94,West,269,5.0,5.0,67,0.00,,---,0.00,VWS V14.01,2013-03-27 13:58:00,
2013-03-27 07:00:00,50.3,39.8,29.94,West,269,6.0,11.0,67,0.00,,---,0.00,VWS V14.01,2013-03-27 14:00:00,
2013-03-27 07:03:00,50.6,39.7,29.94,SW,235,6.0,12.0,66,0.00,,---,0.00,VWS V14.01,2013-03-27 14:03:00,
2013-03-27 07:08:00,50.7,39.8,29.94,WNW,294,6.0,12.0,66,0.00,,---,0.00,VWS V14.01,2013-03-27 14:08:00,
2013-03-27 07:13:00,50.8,39.9,29.95,West,280,9.0,12.0,66,0.00,,---,0.00,VWS V14.01,2013-03-27 14:13:00,
2013-03-27 07:18:00,51.0,39.7,29.95,WSW,257,9.0,12.0,65,0.00,,---,0.00,VWS V14.01,2013-03-27 14:18:00,
2013-03-27 07:23:00,51.2,39.8,29.95,West,279,5.0,12.0,65,0.00,,---,0.00,VWS V14.01,2013-03-27 14:23:00,
2013-03-27 07:28:00,51.3,40.0,29.95,WNW,285,3.0,6.0,65,0.00,,---,0.00,VWS V14.01,2013-03-27 14:28:00,
2013-03-27 07:30:00,51.3,40.0,29.94,WSW,249,6.0,13.0,65,0.00,,---,0.00,VWS V14.01,2013-03-27 14:30:00,
2013-03-27 07:33:00,51.4,40.0,29.95,WSW,249,2.0,11.0,65,0.00,,---,0.00,VWS V14.01,2013-03-27 14:33:00,
2013-03-27 07:38:00,51.6,39.8,29.95,West,267,5.0,12.0,64,0.00,,---,0.00,VWS V14.01,2013-03-27 14:38:00,
2013-03-27 07:43:00,51.7,39.9,29.95,WNW,291,4.0,12.0,64,0.00,,---,0.00,VWS V14.01,2013-03-27 14:43:00,
2013-03-27 07:48:00,51.8,40.0,29.95,West,281,4.0,12.0,64,0.00,,---,0.00,VWS V14.01,2013-03-27 14:48:00,
2013-03-27 07:53:00,52.1,40.3,29.94,WSW,242,8.0,12.0,64,0.00,,---,0.00,VWS V14.01,2013-03-27 14:53:00,
2013-03-27 07:58:00,52.5,40.3,29.94,SW,229,5.0,6.0,63,0.00,,---,0.00,VWS V14.01,2013-03-27 14:58:00,
2013-03-27 08:00:00,52.5,40.3,29.94,WSW,254,6.0,12.0,63,0.00,,---,0.00,VWS V14.01,2013-03-27 15:00:00,
2013-03-27 08:03:00,52.8,40.6,29.95,WSW,249,5.0,12.0,63,0.00,,---,0.00,VWS V14.01,2013-03-27 15:03:00,
2013-03-27 08:08:00,53.2,41.0,29.95,West,264,4.0,14.0,63,0.00,,---,0.00,VWS V14.01,2013-03-27 15:08:00,
2013-03-27 08:13:00,53.6,41.3,29.95,WSW,239,6.0,14.0,63,0.00,,---,0.00,VWS V14.01,2013-03-27 15:13:00,
2013-03-27 08:18:00,54.1,41.4,29.95,West,259,8.0,14.0,62,0.00,,---,0.00,VWS V14.01,2013-03-27 15:18:00,
2013-03-27 08:23:00,54.6,41.9,29.95,SW,224,6.0,14.0,62,0.00,,---,0.00,VWS V14.01,2013-03-27 15:23:00,
2013-03-27 08:28:00,55.3,42.1,29.95,West,264,7.0,8.0,61,0.00,,---,0.00,VWS V14.01,2013-03-27 15:28:00,
2013-03-27 08:30:00,55.3,42.1,29.95,SW,218,7.0,14.0,61,0.00,,---,0.00,VWS V14.01,2013-03-27 15:30:00,
2013-03-27 08:33:00,56.1,42.0,29.95,WNW,285,8.0,16.0,59,0.00,,---,0.00,VWS V14.01,2013-03-27 15:33:00,
2013-03-27 08:38:00,56.3,41.7,29.95,West,274,14.0,16.0,58,0.00,,---,0.00,VWS V14.01,2013-03-27 15:38:00,
2013-03-27 08:43:00,56.2,41.6,29.95,NW,305,12.0,16.0,58,0.00,,---,0.00,VWS V14.01,2013-03-27 15:43:00,
2013-03-27 08:48:00,56.2,41.6,29.96,WNW,288,6.0,16.0,58,0.00,,---,0.00,VWS V14.01,2013-03-27 15:48:00,
2013-03-27 08:53:00,56.4,42.3,29.95,WNW,297,7.0,17.0,59,0.00,,---,0.00,VWS V14.01,2013-03-27 15:53:00,
2013-03-27 08:58:00,56.5,41.9,29.95,SW,214,6.0,6.0,58,0.00,,---,0.00,VWS V14.01,2013-03-27 15:58:00,
2013-03-27 09:00:00,56.4,41.8,29.95,West,260,7.0,17.0,58,0.00,,---,0.00,VWS V14.01,2013-03-27 16:00:00,
2013-03-27 09:03:00,56.8,42.2,29.96,West,281,10.0,14.0,58,0.00,,---,0.00,VWS V14.01,2013-03-27 16:03:00,
2013-03-27 09:08:00,57.4,41.8,29.96,WNW,288,5.0,15.0,56,0.00,,---,0.00,VWS V14.01,2013-03-27 16:08:00,
2013-03-27 09:13:00,57.2,41.7,29.96,NW,311,4.0,15.0,56,0.00,,---,0.00,VWS V14.01,2013-03-27 16:13:00,
2013-03-27 09:18:00,57.9,41.8,29.96,WSW,240,8.0,15.0,55,0.00,,---,0.00,VWS V14.01,2013-03-27 16:18:00,
2013-03-27 09:23:00,59.0,41.4,29.96,WNW,284,7.0,17.0,52,0.00,,---,0.00,VWS V14.01,2013-03-27 16:23:00,
2013-03-27 09:28:00,59.7,41.0,29.95,WNW,284,10.0,16.0,50,0.00,,---,0.00,VWS V14.01,2013-03-27 16:28:00,
2013-03-27 09:30:00,59.7,41.6,29.95,WNW,290,12.0,17.0,51,0.00,,---,0.00,VWS V14.01,2013-03-27 16:30:00,
2013-03-27 09:33:00,60.2,41.5,29.95,WSW,255,10.0,16.0,50,0.00,,---,0.00,VWS V14.01,2013-03-27 16:33:00,
2013-03-27 09:38:00,60.8,41.0,29.95,WNW,302,9.0,16.0,48,0.00,,---,0.00,VWS V14.01,2013-03-27 16:38:00,
2013-03-27 09:43:00,61.3,41.5,29.95,NW,314,10.0,16.0,48,0.00,,---,0.00,VWS V14.01,2013-03-27 16:43:00,
2013-03-27 09:48:00,61.6,40.6,29.95,WSW,242,9.0,16.0,46,0.00,,---,0.00,VWS V14.01,2013-03-27 16:48:00,
2013-03-27 09:53:00,61.4,39.3,29.96,NW,314,10.0,16.0,44,0.00,,---,0.00,VWS V14.01,2013-03-27 16:53:00,
2013-03-27 09:58:00,61.7,38.4,29.96,NW,305,8.0,10.0,42,0.00,,---,0.00,VWS V14.01,2013-03-27 16:58:00,
2013-03-27 10:00:00,61.7,38.4,29.96,West,271,7.0,16.0,42,0.00,,---,0.00,VWS V14.01,2013-03-27 17:00:00,
2013-03-27 10:03:00,62.5,39.7,29.96,West,276,5.0,13.0,43,0.00,,---,0.00,VWS V14.01,2013-03-27 17:03:00,
2013-03-27 10:08:00,63.2,39.1,29.96,WSW,252,12.0,13.0,41,0.00,,---,0.00,VWS V14.01,2013-03-27 17:08:00,
2013-03-27 10:13:00,63.5,39.4,29.96,WNW,302,8.0,13.0,41,0.00,,---,0.00,VWS V14.01,2013-03-27 17:13:00,
2013-03-27 10:18:00,63.8,39.0,29.96,West,270,7.0,13.0,40,0.00,,---,0.00,VWS V14.01,2013-03-27 17:18:00,
2013-03-27 10:23:00,64.2,38.8,29.96,West,280,9.0,14.0,39,0.00,,---,0.00,VWS V14.01,2013-03-27 17:23:00,
2013-03-27 10:28:00,64.3,38.8,29.96,West,260,9.0,9.0,39,0.00,,---,0.00,VWS V14.01,2013-03-27 17:28:00,
2013-03-27 10:30:00,64.3,38.8,29.96,WSW,250,4.0,15.0,39,0.00,,---,0.00,VWS V14.01,2013-03-27 17:30:00,
2013-03-27 10:33:00,64.8,39.3,29.96,West,278,11.0,12.0,39,0.00,,---,0.00,VWS V14.01,2013-03-27 17:33:00,
2013-03-27 10:38:00,65.2,39.0,29.96,West,260,10.0,14.0,38,0.00,,---,0.00,VWS V14.01,2013-03-27 17:38:00,
2013-03-27 10:43:00,65.4,39.2,29.96,WNW,284,10.0,14.0,38,0.00,,---,0.00,VWS V14.01,2013-03-27 17:43:00,
2013-03-27 10:48:00,65.4,39.2,29.96,WNW,301,10.0,14.0,38,0.00,,---,0.00,VWS V14.01,2013-03-27 17:48:00,
2013-03-27 10:53:00,65.9,39.6,29.96,WNW,286,10.0,14.0,38,0.00,,---,0.00,VWS V14.01,2013-03-27 17:53:00,
2013-03-27 10:58:00,66.3,39.3,29.96,WSW,245,8.0,8.0,37,0.00,,---,0.00,VWS V14.01,2013-03-27 17:58:00,
2013-03-27 11:00:00,66.3,39.3,29.96,WSW,249,7.0,14.0,37,0.00,,---,0.00,VWS V14.01,2013-03-27 18:00:00,
2013-03-27 11:03:00,66.6,39.5,29.96,WSW,255,9.0,12.0,37,0.00,,---,0.00,VWS V14.01,2013-03-27 18:03:00,
2013-03-27 11:08:00,67.1,40.0,29.95,NW,305,5.0,13.0,37,0.00,,---,0.00,VWS V14.01,2013-03-27 18:08:00,
2013-03-27 11:13:00,67.1,39.3,29.96,NW,308,5.0,13.0,36,0.00,,---,0.00,VWS V14.01,2013-03-27 18:13:00,
2013-03-27 11:18:00,67.0,38.5,29.96,WNW,297,7.0,13.0,35,0.00,,---,0.00,VWS V14.01,2013-03-27 18:18:00,
2013-03-27 11:23:00,67.5,39.6,29.96,WNW,289,7.0,13.0,36,0.00,,---,0.00,VWS V14.01,2013-03-27 18:23:00,
2013-03-27 11:28:00,67.4,39.5,29.96,WNW,296,8.0,13.0,36,0.00,,---,0.00,VWS V14.01,2013-03-27 18:28:00,
2013-03-27 11:30:00,67.4,39.5,29.96,WNW,296,8.0,13.0,36,0.00,,---,0.00,VWS V14.01,2013-03-27 18:30:00,
2013-03-27 11:33:00,67.5,38.9,29.96,NW,305,6.0,10.0,35,0.00,,---,0.00,VWS V14.01,2013-03-27 18:33:00,
2013-03-27 11:38:00,68.1,38.7,29.96,WNW,302,5.0,16.0,34,0.00,,---,0.00,VWS V14.01,2013-03-27 18:38:00,
2013-03-27 11:43:00,68.0,37.1,29.96,WNW,293,8.0,16.0,32,0.00,,---,0.00,VWS V14.01,2013-03-27 18:43:00,
2013-03-27 11:48:00,68.1,38.7,29.96,WNW,293,9.0,16.0,34,0.00,,---,0.00,VWS V14.01,2013-03-27 18:48:00,
2013-03-27 11:53:00,68.5,38.3,29.96,West,277,7.0,16.0,33,0.00,,---,0.00,VWS V14.01,2013-03-27 18:53:00,
2013-03-27 11:58:00,68.4,37.4,29.96,West,273,6.0,16.0,32,0.00,,---,0.00,VWS V14.01,2013-03-27 18:58:00,
2013-03-27 12:00:00,68.4,37.4,29.96,West,273,6.0,16.0,32,0.00,,---,0.00,VWS V14.01,2013-03-27 19:00:00,
2013-03-27 12:03:00,68.6,37.6,29.95,WNW,285,9.0,11.0,32,0.00,,---,0.00,VWS V14.01,2013-03-27 19:03:00,
2013-03-27 12:08:00,68.1,37.9,29.96,NW,308,8.0,12.0,33,0.00,,---,0.00,VWS V14.01,2013-03-27 19:08:00,
2013-03-27 12:13:00,68.3,37.3,29.96,West,263,12.0,12.0,32,0.00,,---,0.00,VWS V14.01,2013-03-27 19:13:00,
2013-03-27 12:18:00,68.5,38.3,29.96,WNW,283,6.0,12.0,33,0.00,,---,0.00,VWS V14.01,2013-03-27 19:18:00,
2013-03-27 12:23:00,68.8,37.8,29.96,West,264,11.0,12.0,32,0.00,,---,0.00,VWS V14.01,2013-03-27 19:23:00,
2013-03-27 12:28:00,68.6,38.4,29.95,West,278,5.0,12.0,33,0.00,,---,0.00,VWS V14.01,2013-03-27 19:28:00,
2013-03-27 12:30:00,68.7,38.5,29.95,West,278,5.0,12.0,33,0.00,,---,0.00,VWS V14.01,2013-03-27 19:30:00,
2013-03-27 12:33:00,69.0,37.1,29.96,West,277,5.0,12.0,31,0.00,,---,0.00,VWS V14.01,2013-03-27 19:33:00,
2013-03-27 12:38:00,69.0,37.1,29.96,WNW,286,3.0,14.0,31,0.00,,---,0.00,VWS V14.01,2013-03-27 19:38:00,
2013-03-27 12:43:00,68.9,37.8,29.96,West,266,7.0,16.0,32,0.00,,---,0.00,VWS V14.01,2013-03-27 19:43:00,
2013-03-27 12:48:00,68.8,37.8,29.95,West,260,5.0,16.0,32,0.00,,---,0.00,VWS V14.01,2013-03-27 19:48:00,
2013-03-27 12:53:00,69.4,38.3,29.95,WNW,296,8.0,16.0,32,0.00,,---,0.00,VWS V14.01,2013-03-27 19:53:00,
2013-03-27 12:58:00,69.4,37.5,29.95,WNW,284,8.0,16.0,31,0.00,,---,0.00,VWS V14.01,2013-03-27 19:58:00,
2013-03-27 13:00:00,69.4,37.5,29.95,West,280,8.0,16.0,31,0.00,,---,0.00,VWS V14.01,2013-03-27 20:00:00,
2013-03-27 13:03:00,69.8,37.8,29.95,WSW,257,7.0,12.0,31,0.00,,---,0.00,VWS V14.01,2013-03-27 20:03:00,
2013-03-27 13:08:00,69.3,38.2,29.95,West,266,8.0,14.0,32,0.00,,---,0.00,VWS V14.01,2013-03-27 20:08:00,
2013-03-27 13:13:00,68.8,37.8,29.95,WNW,299,10.0,14.0,32,0.00,,---,0.00,VWS V14.01,2013-03-27 20:13:00,
2013-03-27 13:18:00,69.0,38.7,29.95,West,278,11.0,14.0,33,0.00,,---,0.00,VWS V14.01,2013-03-27 20:18:00,
2013-03-27 13:23:00,69.1,39.6,29.96,NW,305,9.0,14.0,34,0.00,,---,0.00,VWS V14.01,2013-03-27 20:23:00,
2013-03-27 13:28:00,68.8,38.5,29.95,WNW,289,10.0,15.0,33,0.00,,---,0.00,VWS V14.01,2013-03-27 20:28:00,
2013-03-27 13:30:00,68.8,38.5,29.95,NNW,330,8.0,15.0,33,0.00,,---,0.00,VWS V14.01,2013-03-27 20:30:00,
2013-03-27 13:33:00,68.7,39.2,29.95,West,277,8.0,15.0,34,0.00,,---,0.00,VWS V14.01,2013-03-27 20:33:00,
2013-03-27 13:38:00,68.7,40.0,29.95,WNW,283,12.0,15.0,35,0.00,,---,0.00,VWS V14.01,2013-03-27 20:38:00,
2013-03-27 13:43:00,69.0,40.2,29.95,NNW,335,9.0,17.0,35,0.00,,---,0.00,VWS V14.01,2013-03-27 20:43:00,
2013-03-27 13:48:00,68.8,39.3,29.95,WNW,297,7.0,17.0,34,0.00,,---,0.00,VWS V14.01,2013-03-27 20:48:00,
2013-03-27 13:53:00,68.7,40.0,29.95,NW,308,8.0,17.0,35,0.00,,---,0.00,VWS V14.01,2013-03-27 20:53:00,
2013-03-27 13:58:00,68.1,39.4,29.95,NW,312,10.0,17.0,35,0.00,,---,0.00,VWS V14.01,2013-03-27 20:58:00,
2013-03-27 14:00:00,68.1,39.4,29.95,NW,312,10.0,17.0,35,0.00,,---,0.00,VWS V14.01,2013-03-27 21:00:00,
2013-03-27 14:03:00,68.4,39.7,29.95,NW,318,10.0,17.0,35,0.00,,---,0.00,VWS V14.01,2013-03-27 21:03:00,
2013-03-27 14:08:00,68.9,39.4,29.95,NW,317,11.0,17.0,34,0.00,,---,0.00,VWS V14.01,2013-03-27 21:08:00,
2013-03-27 14:13:00,68.6,39.1,29.94,NW,313,6.0,18.0,34,0.00,,---,0.00,VWS V14.01,2013-03-27 21:13:00,
2013-03-27 14:18:00,68.6,39.1,29.94,NW,319,8.0,18.0,34,0.00,,---,0.00,VWS V14.01,2013-03-27 21:18:00,
2013-03-27 14:23:00,68.5,39.8,29.94,NNW,333,12.0,20.0,35,0.00,,---,0.00,VWS V14.01,2013-03-27 21:23:00,
2013-03-27 14:28:00,68.5,39.0,29.94,WNW,295,12.0,20.0,34,0.00,,---,0.00,VWS V14.01,2013-03-27 21:28:00,
2013-03-27 14:30:00,68.5,39.0,29.94,WNW,295,12.0,20.0,34,0.00,,---,0.00,VWS V14.01,2013-03-27 21:30:00,
2013-03-27 14:33:00,68.5,39.0,29.94,WNW,294,13.0,17.0,34,0.00,,---,0.00,VWS V14.01,2013-03-27 21:33:00,
2013-03-27 14:38:00,68.6,39.1,29.94,WNW,299,7.0,20.0,34,0.00,,---,0.00,VWS V14.01,2013-03-27 21:38:00,
2013-03-27 14:43:00,68.7,39.2,29.94,NW,315,9.0,20.0,34,0.00,,---,0.00,VWS V14.01,2013-03-27 21:43:00,
2013-03-27 14:48:00,68.2,38.8,29.94,NW,308,10.0,20.0,34,0.00,,---,0.00,VWS V14.01,2013-03-27 21:48:00,
2013-03-27 14:53:00,68.3,39.6,29.94,WNW,300,14.0,20.0,35,0.00,,---,0.00,VWS V14.01,2013-03-27 21:53:00,
2013-03-27 14:58:00,68.5,39.0,29.94,WNW,290,10.0,20.0,34,0.00,,---,0.00,VWS V14.01,2013-03-27 21:58:00,
2013-03-27 15:00:00,68.5,39.0,29.94,WNW,290,10.0,20.0,34,0.00,,---,0.00,VWS V14.01,2013-03-27 22:00:00,
2013-03-27 15:03:00,68.0,39.3,29.94,NW,307,10.0,20.0,35,0.00,,---,0.00,VWS V14.01,2013-03-27 22:03:00,
2013-03-27 15:08:00,68.3,39.6,29.94,NW,313,13.0,20.0,35,0.00,,---,0.00,VWS V14.01,2013-03-27 22:08:00,
2013-03-27 15:13:00,68.0,39.3,29.94,WNW,283,14.0,20.0,35,0.00,,---,0.00,VWS V14.01,2013-03-27 22:13:00,
2013-03-27 15:18:00,67.2,39.4,29.94,West,273,8.0,20.0,36,0.00,,---,0.00,VWS V14.01,2013-03-27 22:18:00,
2013-03-27 15:23:00,67.8,39.2,29.94,NW,308,12.0,20.0,35,0.00,,---,0.00,VWS V14.01,2013-03-27 22:23:00,
2013-03-27 15:28:00,68.0,38.6,29.94,WNW,293,10.0,20.0,34,0.00,,---,0.00,VWS V14.01,2013-03-27 22:28:00,
2013-03-27 15:30:00,68.0,38.6,29.94,WNW,293,10.0,20.0,34,0.00,,---,0.00,VWS V14.01,2013-03-27 22:30:00,
2013-03-27 15:33:00,67.9,39.3,29.94,NW,308,11.0,13.0,35,0.00,,---,0.00,VWS V14.01,2013-03-27 22:33:00,
2013-03-27 15:38:00,68.0,39.3,29.94,WNW,283,12.0,17.0,35,0.00,,---,0.00,VWS V14.01,2013-03-27 22:38:00,
2013-03-27 15:43:00,67.4,38.8,29.94,WNW,283,15.0,18.0,35,0.00,,---,0.00,VWS V14.01,2013-03-27 22:43:00,
2013-03-27 15:48:00,66.4,38.7,29.94,NW,308,14.0,18.0,36,0.00,,---,0.00,VWS V14.01,2013-03-27 22:48:00,
2013-03-27 15:53:00,66.0,39.0,29.94,West,273,8.0,18.0,37,0.00,,---,0.00,VWS V14.01,2013-03-27 22:53:00,
2013-03-27 15:58:00,65.6,38.7,29.94,WNW,296,9.0,18.0,37,0.00,,---,0.00,VWS V14.01,2013-03-27 22:58:00,
2013-03-27 16:00:00,65.6,38.7,29.94,WNW,295,12.0,18.0,37,0.00,,---,0.00,VWS V14.01,2013-03-27 23:00:00,
2013-03-27 16:03:00,65.7,39.4,29.94,NW,308,9.0,13.0,38,0.00,,---,0.00,VWS V14.01,2013-03-27 23:03:00,
2013-03-27 16:08:00,65.5,39.2,29.94,NW,305,11.0,17.0,38,0.00,,---,0.00,VWS V14.01,2013-03-27 23:08:00,
2013-03-27 16:13:00,65.6,38.7,29.94,NW,308,10.0,17.0,37,0.00,,---,0.00,VWS V14.01,2013-03-27 23:13:00,
2013-03-27 16:18:00,65.7,39.4,29.94,NW,313,11.0,17.0,38,0.00,,---,0.00,VWS V14.01,2013-03-27 23:18:00,
2013-03-27 16:23:00,65.4,39.2,29.94,WNW,302,12.0,17.0,38,0.00,,---,0.00,VWS V14.01,2013-03-27 23:23:00,
2013-03-27 16:28:00,65.1,39.5,29.94,WNW,288,6.0,17.0,39,0.00,,---,0.00,VWS V14.01,2013-03-27 23:28:00,
2013-03-27 16:30:00,65.1,39.5,29.94,West,267,6.0,17.0,39,0.00,,---,0.00,VWS V14.01,2013-03-27 23:30:00,
2013-03-27 16:33:00,65.4,39.8,29.94,West,267,6.0,10.0,39,0.00,,---,0.00,VWS V14.01,2013-03-27 23:33:00,
2013-03-27 16:38:00,65.4,39.2,29.94,WNW,302,9.0,11.0,38,0.00,,---,0.00,VWS V14.01,2013-03-27 23:38:00,
2013-03-27 16:43:00,65.5,39.2,29.94,WNW,302,11.0,14.0,38,0.00,,---,0.00,VWS V14.01,2013-03-27 23:43:00,
2013-03-27 16:48:00,65.4,39.2,29.94,WNW,286,6.0,14.0,38,0.00,,---,0.00,VWS V14.01,2013-03-27 23:48:00,
2013-03-27 17:00:00,65.6,38.7,29.94,WNW,295,12.0,18.0,37,0.00,,---,0.00,VWS V14.01,2013-03-28 00:00:00,
2013-03-27 17:16:00,64.9,39.4,29.95,SW,232,9.0,9.0,39,0.00,,---,0.00,VWS V14.01,2013-03-28 00:16:00,
2013-03-27 17:21:00,64.2,39.4,29.95,WNW,302,6.0,13.0,40,0.00,,---,0.00,VWS V14.01,2013-03-28 00:21:00,
2013-03-27 17:26:00,64.0,39.8,29.95,West,263,8.0,13.0,41,0.00,,---,0.00,VWS V14.01,2013-03-28 00:26:00,
2013-03-27 17:30:00,63.9,39.8,29.95,West,278,11.0,13.0,41,0.00,,---,0.00,VWS V14.01,2013-03-28 00:30:00,
2013-03-27 17:31:00,63.9,39.8,29.95,NW,310,6.0,16.0,41,0.00,,---,0.00,VWS V14.01,2013-03-28 00:31:00,
2013-03-27 17:36:00,63.7,39.6,29.95,WNW,283,8.0,16.0,41,0.00,,---,0.00,VWS V14.01,2013-03-28 00:36:00,
2013-03-27 17:41:00,63.9,40.4,29.95,WNW,299,9.0,16.0,42,0.00,,---,0.00,VWS V14.01,2013-03-28 00:41:00,
2013-03-27 17:46:00,64.1,39.9,29.95,West,281,4.0,16.0,41,0.00,,---,0.00,VWS V14.01,2013-03-28 00:46:00,
2013-03-27 17:51:00,64.4,40.2,29.95,NW,305,5.0,16.0,41,0.00,,---,0.00,VWS V14.01,2013-03-28 00:51:00,
2013-03-27 17:56:00,64.5,39.7,29.95,WNW,302,6.0,16.0,40,0.00,,---,0.00,VWS V14.01,2013-03-28 00:56:00,
2013-03-27 18:00:00,63.8,39.7,29.95,NW,305,10.0,12.0,41,0.00,,---,0.00,VWS V14.01,2013-03-28 01:00:00,
2013-03-27 18:05:00,63.0,40.2,29.95,NW,319,12.0,12.0,43,0.00,,---,0.00,VWS V14.01,2013-03-28 01:05:00,
2013-03-27 18:10:00,62.6,39.8,29.96,WNW,303,4.0,12.0,43,0.00,,---,0.00,VWS V14.01,2013-03-28 01:10:00,
2013-03-27 18:15:00,62.4,39.6,29.96,West,281,5.0,12.0,43,0.00,,---,0.00,VWS V14.01,2013-03-28 01:15:00,
2013-03-27 18:20:00,62.3,39.5,29.96,WNW,293,6.0,12.0,43,0.00,,---,0.00,VWS V14.01,2013-03-28 01:20:00,
2013-03-27 18:25:00,62.1,39.4,29.96,WNW,283,5.0,12.0,43,0.00,,---,0.00,VWS V14.01,2013-03-28 01:25:00,
2013-03-27 18:30:00,62.0,39.9,29.96,West,278,4.0,8.0,44,0.00,,---,0.00,VWS V14.01,2013-03-28 01:30:00,
2013-03-27 18:35:00,61.8,39.7,29.96,WNW,291,11.0,11.0,44,0.00,,---,0.00,VWS V14.01,2013-03-28 01:35:00,
2013-03-27 18:40:00,61.7,40.2,29.96,West,269,4.0,11.0,45,0.00,,---,0.00,VWS V14.01,2013-03-28 01:40:00,
2013-03-27 18:45:00,61.5,40.0,29.96,NW,307,5.0,11.0,45,0.00,,---,0.00,VWS V14.01,2013-03-28 01:45:00,
2013-03-27 18:51:00,61.4,39.9,29.96,WNW,295,4.0,11.0,45,0.00,,---,0.00,VWS V14.01,2013-03-28 01:51:00,
2013-03-27 18:55:00,61.3,40.4,29.96,WSW,253,7.0,11.0,46,0.00,,---,0.00,VWS V14.01,2013-03-28 01:55:00,
2013-03-27 19:00:00,61.2,40.3,29.96,WNW,289,6.0,11.0,46,0.00,,---,0.00,VWS V14.01,2013-03-28 02:00:00,
2013-03-27 19:01:00,61.0,40.1,29.96,West,271,3.0,7.0,46,0.00,,---,0.00,VWS V14.01,2013-03-28 02:01:00,
2013-03-27 19:06:00,60.7,39.8,29.96,WSW,255,6.0,8.0,46,0.00,,---,0.00,VWS V14.01,2013-03-28 02:06:00,
2013-03-27 19:11:00,60.5,40.2,29.96,West,276,5.0,9.0,47,0.00,,---,0.00,VWS V14.01,2013-03-28 02:11:00,
2013-03-27 19:16:00,60.1,39.8,29.97,WSW,248,4.0,9.0,47,0.00,,---,0.00,VWS V14.01,2013-03-28 02:16:00,
2013-03-27 19:21:00,59.9,40.2,29.97,West,267,3.0,9.0,48,0.00,,---,0.00,VWS V14.01,2013-03-28 02:21:00,
2013-03-27 19:26:00,59.7,40.5,29.97,West,266,2.0,9.0,49,0.00,,---,0.00,VWS V14.01,2013-03-28 02:26:00,
2013-03-27 19:30:00,59.5,40.3,29.97,West,260,4.0,9.0,49,0.00,,---,0.00,VWS V14.01,2013-03-28 02:30:00,
2013-03-27 19:31:00,59.2,40.6,29.97,West,278,4.0,6.0,50,0.00,,---,0.00,VWS V14.01,2013-03-28 02:31:00,
2013-03-27 19:36:00,59.0,40.4,29.97,SW,231,3.0,9.0,50,0.00,,---,0.00,VWS V14.01,2013-03-28 02:36:00,
2013-03-27 19:41:00,58.8,40.7,29.97,WSW,239,4.0,9.0,51,0.00,,---,0.00,VWS V14.01,2013-03-28 02:41:00,
2013-03-27 19:46:00,58.5,40.5,29.97,West,277,2.0,9.0,51,0.00,,---,0.00,VWS V14.01,2013-03-28 02:46:00,
2013-03-27 19:51:00,57.5,40.5,29.97,West,262,3.0,9.0,53,0.00,,---,0.00,VWS V14.01,2013-03-28 02:51:00,
2013-03-27 19:56:00,56.8,40.3,29.97,West,262,1.0,9.0,54,0.00,,---,0.00,VWS V14.01,2013-03-28 02:56:00,
2013-03-27 20:00:00,56.6,40.6,29.97,West,266,1.0,9.0,55,0.00,,---,0.00,VWS V14.01,2013-03-28 03:00:00,
2013-03-27 20:01:00,56.3,40.8,29.97,WSW,257,0.0,3.0,56,0.00,,---,0.00,VWS V14.01,2013-03-28 03:01:00,
2013-03-27 20:06:00,56.1,41.1,29.98,West,274,3.0,5.0,57,0.00,,---,0.00,VWS V14.01,2013-03-28 03:06:00,
2013-03-27 20:11:00,56.0,41.0,29.98,West,269,1.0,5.0,57,0.00,,---,0.00,VWS V14.01,2013-03-28 03:11:00,
2013-03-27 20:16:00,55.9,41.3,29.98,WNW,291,3.0,6.0,58,0.00,,---,0.00,VWS V14.01,2013-03-28 03:16:00,
2013-03-27 20:21:00,55.7,41.2,29.98,West,262,3.0,6.0,58,0.00,,---,0.00,VWS V14.01,2013-03-28 03:21:00,
2013-03-27 20:26:00,55.6,41.1,29.99,West,266,1.0,6.0,58,0.00,,---,0.00,VWS V14.01,2013-03-28 03:26:00,
2013-03-27 20:30:00,55.6,41.5,29.99,SW,233,2.0,6.0,59,0.00,,---,0.00,VWS V14.01,2013-03-28 03:30:00,
2013-03-27 20:31:00,55.6,41.5,29.99,West,276,2.0,4.0,59,0.00,,---,0.00,VWS V14.01,2013-03-28 03:31:00,
2013-03-27 20:35:00,55.7,41.6,29.99,WSW,248,1.0,5.0,59,0.00,,---,0.00,VWS V14.01,2013-03-28 03:35:00,
2013-03-27 20:40:00,55.5,41.9,29.99,WSW,252,1.0,5.0,60,0.00,,---,0.00,VWS V14.01,2013-03-28 03:40:00,
2013-03-27 20:45:00,55.4,41.8,29.99,SW,222,3.0,5.0,60,0.00,,---,0.00,VWS V14.01,2013-03-28 03:45:00,
2013-03-27 20:50:00,55.2,41.6,29.99,SW,224,1.0,5.0,60,0.00,,---,0.00,VWS V14.01,2013-03-28 03:50:00,
2013-03-27 20:55:00,54.9,41.7,29.99,West,271,2.0,5.0,61,0.00,,---,0.00,VWS V14.01,2013-03-28 03:55:00,
2013-03-27 21:00:00,54.6,41.4,30.00,West,274,0.0,2.0,61,0.00,,---,0.00,VWS V14.01,2013-03-28 04:00:00,
2013-03-27 21:05:00,54.2,41.5,30.00,WSW,255,0.0,2.0,62,0.00,,---,0.00,VWS V14.01,2013-03-28 04:05:00,
2013-03-27 21:10:00,54.0,41.7,30.00,West,260,0.0,3.0,63,0.00,,---,0.00,VWS V14.01,2013-03-28 04:10:00,
2013-03-27 21:15:00,53.9,41.6,30.00,West,277,2.0,3.0,63,0.00,,---,0.00,VWS V14.01,2013-03-28 04:15:00,
2013-03-27 21:20:00,53.3,41.5,30.00,West,272,1.0,5.0,64,0.00,,---,0.00,VWS V14.01,2013-03-28 04:20:00,
2013-03-27 21:25:00,52.8,42.2,30.00,WSW,240,2.0,5.0,67,0.00,,---,0.00,VWS V14.01,2013-03-28 04:25:00,
2013-03-27 21:30:00,52.3,42.1,30.00,West,278,1.0,3.0,68,0.00,,---,0.00,VWS V14.01,2013-03-28 04:30:00,
2013-03-27 21:35:00,51.9,42.4,30.01,West,262,1.0,3.0,70,0.00,,---,0.00,VWS V14.01,2013-03-28 04:35:00,
2013-03-27 21:40:00,51.5,42.4,30.01,West,264,0.0,3.0,71,0.00,,---,0.00,VWS V14.01,2013-03-28 04:40:00,
2013-03-27 21:45:00,51.3,42.2,30.01,WSW,252,1.0,3.0,71,0.00,,---,0.00,VWS V14.01,2013-03-28 04:45:00,
2013-03-27 21:50:00,51.2,41.8,30.01,WSW,257,0.0,3.0,70,0.00,,---,0.00,VWS V14.01,2013-03-28 04:50:00,
2013-03-27 21:55:00,51.0,41.6,30.01,SW,229,0.0,3.0,70,0.00,,---,0.00,VWS V14.01,2013-03-28 04:55:00,
2013-03-27 22:00:00,50.7,41.7,30.02,SW,224,1.0,1.0,71,0.00,,---,0.00,VWS V14.01,2013-03-28 05:00:00,
2013-03-27 22:05:00,51.0,42.3,30.02,WSW,238,2.0,3.0,72,0.00,,---,0.00,VWS V14.01,2013-03-28 05:05:00,
2013-03-27 22:10:00,51.5,42.4,30.02,West,277,3.0,4.0,71,0.00,,---,0.00,VWS V14.01,2013-03-28 05:10:00,
2013-03-27 22:15:00,51.7,42.6,30.02,West,277,1.0,4.0,71,0.00,,---,0.00,VWS V14.01,2013-03-28 05:15:00,
2013-03-27 22:20:00,51.5,43.1,30.02,WNW,299,3.0,4.0,73,0.00,,---,0.00,VWS V14.01,2013-03-28 05:20:00,
2013-03-27 22:25:00,51.7,43.7,30.02,West,264,5.0,7.0,74,0.00,,---,0.00,VWS V14.01,2013-03-28 05:25:00,
2013-03-27 22:30:00,51.8,43.8,30.02,West,278,2.0,6.0,74,0.00,,---,0.00,VWS V14.01,2013-03-28 05:30:00,
2013-03-27 22:35:00,51.7,43.7,30.02,WSW,252,2.0,7.0,74,0.00,,---,0.00,VWS V14.01,2013-03-28 05:35:00,
2013-03-27 22:40:00,51.6,44.0,30.02,WSW,255,4.0,7.0,75,0.00,,---,0.00,VWS V14.01,2013-03-28 05:40:00,
2013-03-27 22:45:00,51.6,44.0,30.02,WSW,249,5.0,7.0,75,0.00,,---,0.00,VWS V14.01,2013-03-28 05:45:00,
2013-03-27 22:50:00,51.6,44.3,30.03,WNW,293,3.0,7.0,76,0.00,,---,0.00,VWS V14.01,2013-03-28 05:50:00,
2013-03-27 22:55:00,51.7,44.4,30.03,WSW,249,4.0,7.0,76,0.00,,---,0.00,VWS V14.01,2013-03-28 05:55:00,
2013-03-27 23:00:00,51.5,44.2,30.03,WSW,253,4.0,6.0,76,0.00,,---,0.00,VWS V14.01,2013-03-28 06:00:00,
2013-03-27 23:05:00,51.4,44.4,30.03,WSW,238,2.0,7.0,77,0.00,,---,0.00,VWS V14.01,2013-03-28 06:05:00,
2013-03-27 23:10:00,51.4,44.1,30.03,West,278,5.0,8.0,76,0.00,,---,0.00,VWS V14.01,2013-03-28 06:10:00,
2013-03-27 23:15:00,51.4,44.1,30.03,WSW,246,4.0,8.0,76,0.00,,---,0.00,VWS V14.01,2013-03-28 06:15:00,
2013-03-27 23:20:00,51.2,43.9,30.03,WSW,255,2.0,8.0,76,0.00,,---,0.00,VWS V14.01,2013-03-28 06:20:00,
2013-03-27 23:25:00,50.9,44.0,30.03,SW,232,3.0,8.0,77,0.00,,---,0.00,VWS V14.01,2013-03-28 06:25:00,
2013-03-27 23:30:00,50.6,43.7,30.03,WSW,246,3.0,5.0,77,0.00,,---,0.00,VWS V14.01,2013-03-28 06:30:00,
2013-03-27 23:35:00,50.5,43.9,30.03,West,262,3.0,6.0,78,0.00,,---,0.00,VWS V14.01,2013-03-28 06:35:00,
2013-03-27 23:40:00,50.5,43.6,30.03,WSW,252,4.0,6.0,77,0.00,,---,0.00,VWS V14.01,2013-03-28 06:40:00,
2013-03-27 23:45:00,50.7,43.4,30.03,SW,233,3.0,6.0,76,0.00,,---,0.00,VWS V14.01,2013-03-28 06:45:00,
2013-03-27 23:50:00,50.8,43.2,30.03,WSW,257,4.0,6.0,75,0.00,,---,0.00,VWS V14.01,2013-03-28 06:50:00,
2013-03-27 23:55:00,50.8,43.2,30.03,WSW,249,2.0,6.0,75,0.00,,---,0.00,VWS V14.01,2013-03-28 06:55:00,